CKS422 KCVG-KATL

Flight info

Callsign CKS422
Flight time N/A
Altitude 36000
Route CHCLL6 RAMRD HITMN/N0484F350 NEWBB IHAVE MTHEW CHPPR1
Aircraft B77L/H-SDE1E2E3FGHIJ2J3J4J5M1RWXY/LB1D1

Departure

Time 2026-05-06 01:18
Airport Cincinnati Northern Kentucky International Airport (KCVG)

Arrival

Time N/A
Airport Hartsfield Jackson Atlanta International Airport (KATL)
Time Latitude Longitude Altitude Speed Heading
2026-05-06 00:49 39.02881 -84.65489 883 ft 0 kts 51°
2026-05-06 01:07 39.02892 -84.65471 883 ft 7 kts 51°
2026-05-06 01:07 39.02932 -84.65408 883 ft 9 kts 51°
2026-05-06 01:07 39.02953 -84.65330 883 ft 9 kts 88°
2026-05-06 01:07 39.02953 -84.65246 883 ft 9 kts 91°
2026-05-06 01:08 39.02952 -84.65162 883 ft 9 kts 91°
2026-05-06 01:08 39.02951 -84.65078 883 ft 9 kts 91°
2026-05-06 01:08 39.02966 -84.65004 883 ft 8 kts 35°
2026-05-06 01:08 39.03023 -84.64993 883 ft 9 kts
2026-05-06 01:09 39.03084 -84.64994 883 ft 9 kts 359°
2026-05-06 01:09 39.03153 -84.64996 883 ft 10 kts 359°
2026-05-06 01:09 39.03221 -84.64996 883 ft 10 kts
2026-05-06 01:09 39.03292 -84.64993 883 ft 12 kts
2026-05-06 01:10 39.03393 -84.64992 883 ft 17 kts 360°
2026-05-06 01:10 39.03531 -84.64992 883 ft 23 kts
2026-05-06 01:10 39.03697 -84.64991 883 ft 24 kts
2026-05-06 01:10 39.03863 -84.64990 883 ft 24 kts
2026-05-06 01:11 39.04029 -84.64991 883 ft 24 kts 360°
2026-05-06 01:11 39.04196 -84.64990 883 ft 24 kts
2026-05-06 01:11 39.04342 -84.64988 883 ft 10 kts
2026-05-06 01:11 39.04410 -84.64988 883 ft 10 kts
2026-05-06 01:12 39.04463 -84.65032 883 ft 10 kts 289°
2026-05-06 01:12 39.04462 -84.65120 883 ft 10 kts 268°
2026-05-06 01:12 39.04462 -84.65208 884 ft 10 kts 270°
2026-05-06 01:12 39.04467 -84.65279 884 ft 5 kts 295°
2026-05-06 01:13 39.04498 -84.65301 884 ft 5 kts 345°
2026-05-06 01:13 39.04517 -84.65302 885 ft 0 kts
2026-05-06 01:16 39.04539 -84.65300 885 ft 9 kts
2026-05-06 01:17 39.04614 -84.65310 887 ft 9 kts 327°
2026-05-06 01:17 39.04627 -84.65382 888 ft 9 kts 265°
2026-05-06 01:17 39.04626 -84.65393 888 ft 0 kts 267°
2026-05-06 01:17 39.04625 -84.65552 886 ft 50 kts 271°
2026-05-06 01:18 39.04628 -84.66303 887 ft 115 kts 270°
2026-05-06 01:18 39.04630 -84.67572 888 ft 166 kts 270°
2026-05-06 01:18 39.04653 -84.69140 1312 ft 170 kts 275°
2026-05-06 01:18 39.04784 -84.70561 2108 ft 161 kts 265°
2026-05-06 01:19 39.04761 -84.72022 2637 ft 164 kts 259°
2026-05-06 01:19 39.04707 -84.73589 2907 ft 187 kts 261°
2026-05-06 01:19 39.04661 -84.75373 3133 ft 214 kts 262°
2026-05-06 01:19 39.04632 -84.77411 3419 ft 236 kts 264°
2026-05-06 01:20 39.04621 -84.79508 4324 ft 234 kts 265°
2026-05-06 01:20 39.04612 -84.81626 4948 ft 237 kts 265°
2026-05-06 01:20 39.04606 -84.83732 5690 ft 243 kts 265°
2026-05-06 01:20 39.04597 -84.85925 6501 ft 245 kts 265°
2026-05-06 01:21 39.04251 -84.88031 7193 ft 245 kts 243°
2026-05-06 01:21 39.03171 -84.89753 7782 ft 253 kts 220°
2026-05-06 01:21 39.01587 -84.90799 8615 ft 261 kts 200°
2026-05-06 01:21 38.99740 -84.90961 9456 ft 275 kts 179°
2026-05-06 01:22 38.97894 -84.90109 10091 ft 297 kts 152°
2026-05-06 01:22 38.96173 -84.88519 10387 ft 313 kts 156°
2026-05-06 01:22 38.94164 -84.87241 10571 ft 330 kts 168°
2026-05-06 01:22 38.91904 -84.86580 10762 ft 344 kts 182°
2026-05-06 01:23 38.89475 -84.86703 11126 ft 354 kts 193°
2026-05-06 01:23 38.86988 -84.87101 11846 ft 364 kts 193°
2026-05-06 01:23 38.84438 -84.87414 12697 ft 371 kts 191°
2026-05-06 01:23 38.81839 -84.87638 13632 ft 376 kts 190°
2026-05-06 01:24 38.79230 -84.87928 14455 ft 375 kts 195°
2026-05-06 01:24 38.76697 -84.88600 15191 ft 378 kts 200°
2026-05-06 01:24 38.74140 -84.89465 15978 ft 381 kts 201°
2026-05-06 01:24 38.71570 -84.90365 16770 ft 385 kts 201°
2026-05-06 01:25 38.68966 -84.91253 17559 ft 390 kts 200°
2026-05-06 01:25 38.66323 -84.92122 18295 ft 394 kts 200°
2026-05-06 01:25 38.63640 -84.92980 18947 ft 399 kts 200°
2026-05-06 01:25 38.60932 -84.93831 19604 ft 403 kts 200°
2026-05-06 01:26 38.58188 -84.94688 20282 ft 406 kts 200°
2026-05-06 01:26 38.55417 -84.95552 20920 ft 411 kts 200°
2026-05-06 01:26 38.52629 -84.96423 21557 ft 414 kts 200°
2026-05-06 01:26 38.49866 -84.97309 22167 ft 413 kts 204°
2026-05-06 01:27 38.47263 -84.98794 22610 ft 408 kts 219°
2026-05-06 01:27 38.45099 -85.01092 23206 ft 402 kts 228°
2026-05-06 01:27 38.43049 -85.03547 23718 ft 407 kts 228°
2026-05-06 01:27 38.40967 -85.06021 24237 ft 410 kts 228°
2026-05-06 01:28 38.38862 -85.08502 24762 ft 414 kts 228°
2026-05-06 01:28 38.36731 -85.10997 25291 ft 417 kts 229°
2026-05-06 01:28 38.34605 -85.13474 25802 ft 421 kts 229°
2026-05-06 01:28 38.32428 -85.16001 26288 ft 425 kts 229°
2026-05-06 01:29 38.30233 -85.18545 26770 ft 428 kts 229°
2026-05-06 01:29 38.28015 -85.21111 27258 ft 431 kts 229°
2026-05-06 01:29 38.25782 -85.23691 27730 ft 435 kts 229°
2026-05-06 01:29 38.23537 -85.26284 28208 ft 438 kts 229°
2026-05-06 01:30 38.21273 -85.28898 28652 ft 441 kts 230°
2026-05-06 01:30 38.18988 -85.31532 29082 ft 444 kts 230°
2026-05-06 01:30 38.16689 -85.34179 29480 ft 448 kts 230°
2026-05-06 01:30 38.14370 -85.36849 29864 ft 451 kts 230°
2026-05-06 01:31 38.12072 -85.39492 30230 ft 452 kts 230°
2026-05-06 01:31 38.09739 -85.42169 30778 ft 448 kts 230°
2026-05-06 01:31 38.07527 -85.44897 31354 ft 437 kts 236°
2026-05-06 01:31 38.05613 -85.47852 31853 ft 430 kts 239°
2026-05-06 01:32 38.03802 -85.50866 32309 ft 428 kts 240°
2026-05-06 01:32 38.02017 -85.53877 32772 ft 426 kts 240°
2026-05-06 01:32 38.00225 -85.56867 33245 ft 425 kts 240°
2026-05-06 01:32 37.98443 -85.59794 33690 ft 423 kts 240°
2026-05-06 01:33 37.96628 -85.62739 34081 ft 422 kts 240°
2026-05-06 01:33 37.94813 -85.65661 34454 ft 420 kts 240°
2026-05-06 01:33 37.93000 -85.68567 34841 ft 418 kts 240°
2026-05-06 01:33 37.91202 -85.71447 35195 ft 416 kts 240°
2026-05-06 01:34 37.89428 -85.74287 35479 ft 416 kts 240°
2026-05-06 01:34 37.87641 -85.77147 35814 ft 414 kts 240°
2026-05-06 01:34 37.84066 -85.82864 35810 ft 413 kts 240°
2026-05-06 01:35 37.80411 -85.88491 35851 ft 419 kts 234°
2026-05-06 01:35 37.78099 -85.90839 35852 ft 438 kts 222°
2026-05-06 01:35 37.75363 -85.92650 35877 ft 445 kts 218°
2026-05-06 01:36 37.69812 -85.96068 35858 ft 447 kts 218°
2026-05-06 01:36 37.67019 -85.97791 35693 ft 447 kts 218°
2026-05-06 01:36 37.64227 -85.99531 35432 ft 445 kts 218°
2026-05-06 01:37 37.61462 -86.01263 35191 ft 441 kts 218°
2026-05-06 01:37 37.58729 -86.02985 34966 ft 438 kts 218°
2026-05-06 01:37 37.53304 -86.06418 34866 ft 436 kts 218°